| time (UTC) | temp F | wind direction | speed knots | gust knots | rain 1hr in | rain 24hr in | rain mn in | humidity % | barometer mb |
| 20260504110234 | 61 | 175 | 0.9 | 1.7 | 0.00 | 0.00 | 0.00 | 25 | 1015.7 |
| 20260504100233 | 63 | 88 | 0.9 | 1.7 | 0.00 | 0.00 | 0.00 | 25 | 1015.3 |
| 20260504081234 | 66 | 242 | 1.7 | 5.2 | 0.00 | 0.00 | 0.00 | 25 | 1014.2 |
| 20260504080233 | 67 | 303 | 4.3 | 8.7 | 0.00 | 0.04 | 0.00 | 25 | 1014.0 |
| 20260504070234 | 69 | 318 | 5.2 | 4.3 | 0.00 | 0.04 | 0.00 | 25 | 1014.6 |
| 20260504060233 | 70 | 318 | 8.7 | 8.7 | 0.00 | 0.08 | 0.00 | 25 | 1014.5 |
| 20260504050233 | 74 | 338 | 6.1 | 7.8 | 0.00 | 0.33 | 0.00 | 25 | 1014.3 |
| 20260504045234 | 72 | 354 | 7.0 | 10.4 | 0.00 | 0.37 | 0.00 | 25 | 1014.1 |
| 20260504044233 | 73 | 335 | 7.0 | 12.2 | 0.00 | 0.41 | 0.00 | 25 | 1014.1 |
| 20260504043233 | 71 | 324 | 5.2 | 6.1 | 0.00 | 0.50 | 0.00 | 25 | 1013.8 |
| 20260504042234 | 72 | 338 | 5.2 | 12.2 | 0.00 | 0.54 | 0.00 | 25 | 1014.0 |
| 20260504041234 | 71 | 208 | 4.3 | 6.1 | 0.00 | 0.58 | 0.00 | 25 | 1014.0 |
| 20260504040234 | 70 | 338 | 4.3 | 7.8 | 0.00 | 0.58 | 0.00 | 25 | 1013.7 |
| 20260504035232 | 70 | 158 | 5.2 | 11.3 | 0.00 | 0.58 | 0.00 | 25 | 1013.9 |
| 20260504034234 | 72 | 187 | 2.6 | 2.6 | 0.00 | 0.58 | 0.00 | 25 | 1013.9 |
| 20260504033234 | 69 | 320 | 2.6 | 4.3 | 0.00 | 0.62 | 0.00 | 25 | 1013.4 |
| 20260504032234 | 70 | 315 | 2.6 | 4.3 | 0.00 | 0.62 | 0.00 | 25 | 1013.6 |
| 20260504031232 | 70 | 338 | 1.7 | 2.6 | 0.00 | 0.62 | 0.00 | 25 | 1013.6 |
| 20260504030234 | 69 | 82 | 2.6 | 4.3 | 0.00 | 0.62 | 0.00 | 25 | 1013.6 |
| 20260504025234 | 69 | 355 | 2.6 | 5.2 | 0.00 | 0.66 | 0.00 | 25 | 1013.6 |
| 20260504024232 | 69 | 199 | 4.3 | 4.3 | 0.00 | 0.66 | 0.00 | 25 | 1013.6 |
| 20260504023232 | 69 | 313 | 5.2 | 7.8 | 0.00 | 0.75 | 0.00 | 25 | 1014.0 |
| 20260504022234 | 69 | 13 | 4.3 | 7.8 | 0.00 | 0.83 | 0.00 | 25 | 1013.7 |
| 20260504021233 | 69 | 356 | 8.7 | 10.4 | 0.00 | 0.83 | 0.00 | 25 | 1013.7 |
| 20260504020234 | 70 | 200 | 6.1 | 13.9 | 0.00 | 0.87 | 0.00 | 25 | 1013.6 |
| 20260504015233 | 69 | 222 | 5.2 | 7.0 | 0.00 | 0.87 | 0.00 | 25 | 1013.9 |
| 20260504014234 | 68 | 58 | 2.6 | 7.8 | 0.00 | 0.91 | 0.00 | 25 | 1013.9 |
| 20260504013233 | 67 | 309 | 2.6 | 1.7 | 0.00 | 0.91 | 0.00 | 25 | 1013.6 |
| 20260504012232 | 67 | 163 | 6.1 | 5.2 | 0.00 | 0.91 | 0.00 | 25 | 1013.9 |
| 20260504011232 | 66 | 93 | 2.6 | 2.6 | 0.00 | 0.91 | 0.00 | 25 | 1013.9 |
| 20260504010232 | 67 | 325 | 5.2 | 7.0 | 0.00 | 0.91 | 0.00 | 25 | 1014.1 |
| 20260504005233 | 66 | 325 | 4.3 | 2.6 | 0.00 | 0.91 | 0.00 | 25 | 1013.9 |
| 20260504004233 | 66 | 317 | 5.2 | 10.4 | 0.00 | 0.91 | 0.00 | 25 | 1013.9 |
| 20260504003233 | 66 | 358 | 1.7 | 12.2 | 0.00 | 0.91 | 0.00 | 25 | 1013.8 |
| 20260504002234 | 65 | 338 | 2.6 | 2.6 | 0.00 | 0.91 | 0.00 | 25 | 1013.4 |
| 20260504001234 | 64 | 132 | 2.6 | 2.6 | 0.00 | 0.91 | 0.00 | 25 | 1013.5 |
| 20260504000234 | 65 | 333 | 2.6 | 5.2 | 0.00 | 0.91 | 0.00 | 25 | 1013.5 |
| 20260503235232 | 64 | 303 | 0.9 | 1.7 | 0.00 | 0.91 | 0.00 | 25 | 1013.3 |
| 20260503234234 | 63 | 338 | 6.1 | 12.2 | 0.00 | 0.91 | 0.00 | 25 | 1013.3 |
| 20260503233233 | 64 | 315 | 1.7 | 1.7 | 0.00 | 0.91 | 0.00 | 25 | 1013.0 |
| 20260503232232 | 64 | 186 | 5.2 | 10.4 | 0.00 | 0.91 | 0.00 | 25 | 1012.4 |
| 20260503231233 | 64 | 322 | 2.6 | 2.6 | 0.00 | 0.91 | 0.00 | 25 | 1012.4 |
| 20260503230232 | 63 | 29 | 4.3 | 4.3 | 0.00 | 0.91 | 0.00 | 25 | 1012.4 |
| 20260503225234 | 62 | 19 | 1.7 | 2.6 | 0.00 | 0.91 | 0.00 | 25 | 1012.3 |
| 20260503224233 | 62 | 158 | 1.7 | 1.7 | 0.00 | 0.91 | 0.00 | 25 | 1012.3 |
| 20260503223234 | 61 | 19 | 1.7 | 1.7 | 0.00 | 0.91 | 0.00 | 25 | 1012.2 |
| 20260503222233 | 62 | 16 | 0.9 | 2.6 | 0.00 | 0.91 | 0.00 | 25 | 1012.0 |
| 20260503221232 | 62 | 278 | 1.7 | 1.7 | 0.00 | 0.91 | 0.00 | 25 | 1012.0 |
| 20260503220232 | 61 | 209 | 1.7 | 1.7 | 0.00 | 0.91 | 0.00 | 26 | 1011.9 |
| 20260503215232 | 60 | 235 | 1.7 | 2.6 | 0.00 | 0.91 | 0.00 | 25 | 1011.4 |
| 20260503214233 | 60 | 72 | 0.9 | 1.7 | 0.00 | 0.91 | 0.00 | 27 | 1011.4 |
| 20260503213233 | 59 | 298 | 0.9 | 1.7 | 0.00 | 0.91 | 0.00 | 27 | 1011.1 |
| 20260503212233 | 59 | 277 | 1.7 | 1.7 | 0.00 | 0.91 | 0.00 | 31 | 1010.7 |
| 20260503211233 | 58 | 356 | 1.7 | 2.6 | 0.00 | 0.91 | 0.00 | 31 | 1010.7 |
| 20260503210234 | 58 | 191 | 1.7 | 0.9 | 0.00 | 0.91 | 0.00 | 32 | 1010.1 |
| 20260503205232 | 58 | 338 | 1.7 | 2.6 | 0.00 | 0.91 | 0.00 | 33 | 1010.3 |
| 20260503204234 | 58 | 174 | 1.7 | 5.2 | 0.00 | 0.91 | 0.00 | 32 | 1010.3 |
| 20260503203233 | 58 | 338 | 4.3 | 6.1 | 0.00 | 0.91 | 0.00 | 35 | 1009.8 |
| 20260503202233 | 59 | 305 | 2.6 | 2.6 | 0.00 | 0.91 | 0.00 | 38 | 1009.5 |
| 20260503201232 | 59 | 4 | 2.6 | 2.6 | 0.00 | 0.91 | 0.00 | 40 | 1009.5 |
| 20260503200232 | 59 | 224 | 0.9 | 0.9 | 0.00 | 0.91 | 0.00 | 38 | 1009.0 |
| 20260503195233 | 59 | 243 | 0.0 | 0.0 | 0.00 | 0.91 | 0.00 | 39 | 1009.1 |
| 20260503194233 | 60 | 252 | 0.9 | 1.7 | 0.00 | 0.91 | 0.00 | 35 | 1009.1 |
| 20260503193232 | 59 | 190 | 1.7 | 4.3 | 0.00 | 0.91 | 0.00 | 38 | 1008.9 |
| 20260503192233 | 60 | 70 | 1.7 | 5.2 | 0.00 | 0.91 | 0.00 | 38 | 1008.7 |
| 20260503191233 | 60 | 237 | 1.7 | 2.6 | 0.00 | 0.91 | 0.00 | 37 | 1008.7 |
| 20260503190233 | 60 | 273 | 1.7 | 2.6 | 0.00 | 0.91 | 0.00 | 36 | 1008.6 |
| 20260503185233 | 60 | 158 | 0.9 | 1.7 | 0.00 | 0.91 | 0.00 | 37 | 1008.7 |
| 20260503184234 | 60 | 248 | 1.7 | 2.6 | 0.00 | 0.91 | 0.00 | 41 | 1008.7 |
| 20260503183232 | 60 | 243 | 1.7 | 5.2 | 0.00 | 0.91 | 0.00 | 37 | 1008.7 |
| 20260503182232 | 60 | 238 | 1.7 | 2.6 | 0.00 | 0.91 | 0.00 | 41 | 1008.3 |
| 20260503181233 | 60 | 205 | 1.7 | 1.7 | 0.00 | 0.91 | 0.00 | 39 | 1008.3 |
| 20260503180234 | 60 | 151 | 2.6 | 2.6 | 0.00 | 0.91 | 0.00 | 41 | 1008.3 |
| 20260503175232 | 60 | 187 | 0.9 | 0.9 | 0.00 | 0.91 | 0.00 | 44 | 1008.3 |
| 20260503174232 | 60 | 202 | 0.9 | 4.3 | 0.00 | 0.91 | 0.00 | 44 | 1008.3 |
| 20260503173233 | 60 | 14 | 1.7 | 2.6 | 0.00 | 0.91 | 0.00 | 43 | 1008.3 |
| 20260503172233 | 60 | 217 | 2.6 | 2.6 | 0.00 | 0.91 | 0.00 | 46 | 1008.6 |
| 20260503171232 | 60 | 233 | 1.7 | 1.7 | 0.00 | 0.91 | 0.00 | 46 | 1008.1 |
| 20260503170233 | 60 | 358 | 1.7 | 2.6 | 0.00 | 0.91 | 0.00 | 51 | 1008.1 |
| 20260503150232 | 59 | 205 | 2.6 | 2.6 | 0.00 | 0.91 | 0.00 | 52 | 1007.2 |
| 20260503140233 | 59 | 202 | 0.9 | 2.6 | 0.00 | 0.91 | 0.91 | 61 | 1006.7 |
| 20260503131232 | 59 | 249 | 2.6 | 5.2 | 0.00 | 0.91 | 0.91 | 62 | 1006.4 |
| 20260503130233 | 59 | 242 | 1.7 | 2.6 | 0.00 | 0.91 | 0.91 | 63 | 1006.7 |